GW6118 Weather Reports


time (UTC)temp
C
wind
direction
speed
KPH
gust
KPH
rain 1hr
cm
rain 24hr
cm
rain mn
cm
humidity
%
barometer
mb
20260504081512 5 244 0.0 3.2 0.00 0.00 0.00 69 1013.3
20260504044514 7 173 0.0 0.0 0.00 0.00 0.00 58 1013.1
20260504043021 8 294 0.0 0.0 0.00 0.00 0.00 55 1012.9
20260504041523 8 259 0.0 4.8 0.00 0.00 0.00 52 1012.8
20260504040025 9 248 0.0 4.8 0.00 0.00 0.00 51 1012.7
20260504034526 10 250 1.6 4.8 0.00 0.00 0.00 48 1012.5
20260504033017 10 217 1.6 6.4 0.00 0.00 0.00 48 1012.5
20260504031524 10 208 0.0 14.5 0.00 0.00 0.00 48 1012.5
20260504030023 11 236 1.6 11.3 0.00 0.00 0.00 44 1012.5
20260504024528 11 246 6.4 12.9 0.00 0.00 0.00 42 1012.4
20260504023013 11 212 4.8 11.3 0.00 0.00 0.00 41 1012.6
20260504021519 11 213 8.0 14.5 0.00 0.00 0.00 42 1012.5
20260504020022 11 227 4.8 11.3 0.00 0.00 0.00 42 1012.4
20260504014506 11 254 3.2 6.4 0.00 0.00 0.00 43 1012.4
20260504013017 11 227 3.2 8.0 0.00 0.00 0.00 43 1012.2
20260504011515 11 240 1.6 11.3 0.00 0.00 0.00 43 1012.1
20260504010022 11 232 1.6 6.4 0.00 0.00 0.00 43 1012.1
20260504004529 12 246 4.8 8.0 0.00 0.00 0.00 40 1011.9
20260504003009 12 211 1.6 3.2 0.00 0.00 0.00 40 1011.8
20260504001511 12 204 1.6 8.0 0.00 0.00 0.00 39 1011.6
20260504000046 13 262 4.8 12.9 0.00 0.00 0.00 38 1011.5
20260503234522 13 215 3.2 11.3 0.00 0.00 0.00 38 1011.4
20260503233023 13 240 3.2 17.7 0.00 0.00 0.00 36 1011.2
20260503231509 14 236 4.8 14.5 0.00 0.00 0.00 35 1011.1
20260503230015 14 291 8.0 20.9 0.00 0.00 0.00 34 1011.1
20260503224519 14 256 6.4 19.3 0.00 0.00 0.00 34 1011.0
20260503223028 14 254 6.4 14.5 0.00 0.00 0.00 34 1010.9
20260503221508 15 250 8.0 25.7 0.00 0.00 0.00 33 1011.0
20260503220015 15 245 9.7 20.9 0.00 0.00 0.00 33 1010.9
20260503214519 15 260 4.8 16.1 0.00 0.00 0.00 31 1010.8
20260503213023 15 223 8.0 20.9 0.00 0.00 0.00 30 1010.8
20260503211523 15 80 4.8 17.7 0.00 0.00 0.00 31 1010.6
20260503210010 15 15 6.4 17.7 0.00 0.00 0.00 30 1010.7
20260503204519 15 215 6.4 22.5 0.00 0.00 0.00 31 1010.8
20260503203029 15 360 4.8 19.3 0.00 0.00 0.00 32 1010.9
20260503201527 14 284 11.3 22.5 0.00 0.00 0.00 31 1011.1
20260503200027 13 211 6.4 25.7 0.00 0.00 0.00 35 1011.4
20260503194514 13 348 3.2 19.3 0.00 0.00 0.00 34 1011.6
20260503193019 13 40 3.2 16.1 0.00 0.00 0.00 35 1011.7
20260503191524 13 240 14.5 29.0 0.00 0.00 0.00 33 1011.9
20260503190025 13 46 3.2 19.3 0.00 0.00 0.00 34 1011.8
20260503184512 13 5 4.8 22.5 0.00 0.00 0.00 38 1012.0
20260503183018 12 333 11.3 30.6 0.00 0.00 0.00 35 1012.1
20260503181523 12 247 6.4 25.7 0.00 0.00 0.00 37 1012.0
20260503180030 12 217 9.7 45.1 0.00 0.00 0.00 37 1012.1
20260503174526 12 69 9.7 19.3 0.00 0.00 0.00 36 1012.2
20260503173025 11 233 6.4 19.3 0.00 0.00 0.00 38 1012.3
20260503171525 12 265 6.4 17.7 0.00 0.00 0.00 39 1012.3